TimeCDT,TemperatureF,Dew PointF,Humidity,Sea Level PressureIn,VisibilityMPH,Wind Direction,Wind SpeedMPH,Gust SpeedMPH,PrecipitationIn,Events,Conditions,WindDirDegrees,DateUTC
12:53 AM,25.0,19.0,78,30.15,10.0,West,8.1,-,N/A,,Clear,280,2013-03-25 05:53:00
1:53 AM,25.0,19.0,78,30.14,10.0,West,9.2,-,N/A,,Clear,280,2013-03-25 06:53:00
2:53 AM,24.1,19.0,81,30.14,10.0,West,9.2,-,N/A,,Clear,270,2013-03-25 07:53:00
3:53 AM,24.1,18.0,77,30.14,10.0,West,12.7,-,N/A,,Clear,280,2013-03-25 08:53:00
4:53 AM,23.0,17.1,78,30.15,10.0,WNW,12.7,-,N/A,,Clear,290,2013-03-25 09:53:00
5:53 AM,21.9,16.0,78,30.16,10.0,WNW,12.7,-,N/A,,Clear,300,2013-03-25 10:53:00
6:53 AM,23.0,17.1,78,30.16,10.0,WNW,12.7,-,N/A,,Overcast,290,2013-03-25 11:53:00
7:53 AM,23.0,18.0,81,30.18,10.0,WNW,11.5,-,N/A,,Overcast,290,2013-03-25 12:53:00
8:53 AM,24.1,18.0,77,30.22,10.0,WNW,13.8,-,N/A,,Overcast,290,2013-03-25 13:53:00
9:53 AM,26.1,19.9,78,30.23,10.0,NW,17.3,25.3,N/A,,Overcast,310,2013-03-25 14:53:00
10:53 AM,28.0,21.9,78,30.26,10.0,NW,16.1,-,N/A,,Overcast,310,2013-03-25 15:53:00
11:53 AM,28.9,23.0,78,30.27,10.0,WNW,18.4,-,N/A,,Overcast,300,2013-03-25 16:53:00
12:53 PM,30.9,23.0,72,30.27,10.0,WNW,19.6,-,0.00,,Overcast,300,2013-03-25 17:53:00
1:53 PM,32.0,23.0,69,30.27,10.0,NW,19.6,25.3,N/A,,Mostly Cloudy,320,2013-03-25 18:53:00
2:53 PM,33.1,23.0,66,30.28,10.0,NW,17.3,25.3,N/A,,Overcast,320,2013-03-25 19:53:00
3:53 PM,32.0,21.0,64,30.28,10.0,WNW,21.9,27.6,N/A,,Overcast,300,2013-03-25 20:53:00
4:53 PM,32.0,21.0,64,30.29,10.0,NW,17.3,25.3,N/A,,Mostly Cloudy,310,2013-03-25 21:53:00
5:53 PM,32.0,21.0,64,30.30,10.0,WNW,18.4,27.6,N/A,,Overcast,290,2013-03-25 22:53:00
6:53 PM,30.0,23.0,75,30.32,6.0,NW,13.8,24.2,0.00,Snow,Snow,310,2013-03-25 23:53:00
7:00 PM,30.2,23.0,75,30.29,8.0,NW,12.7,-,0.00,Snow,Light Snow,310,2013-03-26 00:00:00
7:53 PM,30.0,23.0,75,30.33,9.0,WNW,11.5,-,0.00,,Overcast,290,2013-03-26 00:53:00
8:22 PM,30.2,23.0,75,30.31,10.0,WNW,17.3,-,N/A,,Overcast,290,2013-03-26 01:22:00
8:53 PM,28.9,23.0,78,30.34,10.0,WNW,8.1,-,N/A,,Overcast,290,2013-03-26 01:53:00
9:53 PM,28.9,23.0,78,30.36,10.0,WNW,8.1,-,N/A,,Overcast,290,2013-03-26 02:53:00
10:53 PM,28.0,23.0,81,30.37,10.0,WNW,6.9,-,N/A,,Clear,300,2013-03-26 03:53:00
11:53 PM,27.0,21.9,81,30.38,10.0,NW,6.9,-,N/A,,Clear,310,2013-03-26 04:53:00